カタログに戻る

STARLINK-31470

運用中通信VLEO
NORAD 59569·PAYLOAD·🇺🇸 United States

打ち上げ Apr 23, 2024 から Cape Canaveral Space Force Station

Loading…

次のパス (今後24時間)

TLE

最新Source: CelesTrak SupGP

元期: Sep 14, 2026, 22:18 UTC

1 59569C 24076F   26257.92965278  .00009641  00000+0  34925-3 0  2575
2 59569  43.0042  16.8712 0002088 278.0128  88.9889 15.27566274    16

AllMySatでSTARLINK-31470をリアルタイム追跡

Download on the App Store